Weather in Muscat

Oman     23°36′54″N   58°35′40″E
temp.,
°C
wind,
m/s
gust,
m/s
humid.,
%
clouds,
%
prec.,
mm/h
press.,
hPa
HPBL,
m
16 april, fri
fri1601:00+29s22215 0.0 100812
04:00+28ssw332422 0.0 100818
07:00+30ssw33235 0.0 101092
10:00+35n22151 0.0 10111291
13:00+35nne54214 0.0 10091036
16:00+34nne432423 0.0 1008851
19:00+30nne113477 0.0 101018
22:00+29sw113529 0.0 101011
17 april, sat
sat1701:00+28wsw113285 0.0 100911
04:00+26nw1138100 0.0 100911
07:00+29nnw1135100 0.0 101193
10:00+31nnw333588 0.0 1012802
13:00+32n433037 0.0 1010780
16:00+32nne332720 0.0 1010655
19:00+29nne2234100 0.0 101151
22:00+28ese0036100 0.0 101311
18 april, sun
sun1801:00+27nw2137100 0.0 101211
04:00+25nw1149100 0.0 101212
07:00+27nw1142100 0.0 1014104
10:00+32ne122819 0.0 1013805
13:00+32nne653441 0.0 1011780
16:00+31nne3236100 0.0 1011697
19:00+28ne2246100 0.0 1012136
22:00+27s1147100 0.0 101214
19 april, mon
mon1901:00+26nw114955 0.0 101112
04:00+24w115399 0.0 101013
07:00+27s113967 0.0 101162
10:00+32n222261 0.0 1011992
13:00+32n552429 0.0 1009870
16:00+32nne43220 0.0 1007956
19:00+29e22285 0.0 100815
22:00+27wsw22320 0.0 100911
20 april, tue
tue2001:00+25w22330 0.0 100813
04:00+23wnw22300 0.0 100718
07:00+27nw11230 0.0 100976
10:00+32nw23140 0.0 1009969
13:00+35nnw64140 0.0 10071340
16:00+33n43170 0.0 1006805
19:00+29ene22240 0.0 100711
22:00+29ssw43220 0.0 100719